"SCET";"RADIUS";"LONGITUDE";"LOCAL_TIME";"LATITUDE";"MAGNETIC_LOCAL_TIME";"MAGNETIC_LATITUDE";"JSE_X";"JSE_Y";"JSE_Z";"FREQ_CE";"METHOD";"MEASURED_VALUE";"QUALITY_INDEX";"MEASURED_ITEM";"SOLAR_WIND";"FREQ_PE";"FREQ_L0";"FREQ_R0";"FREQ_UHR";"ELECTRON_DENSITY"
"[UTC]";"[Rj where 1Rj=71492km]";"[degrees]";"[hours]";"[degrees]";"[degrees]";"[hours]";"[Rj where 1Rj=71492km]";"[Rj where 1Rj=71492km]";"[Rj where 1Rj=71492km]";"[Hz]";"[line, spec, or auto]";"[Hz]";"[0 = best, 3 = worst]";"[p, R, L or u]";"[1 if Yes, 0 if No]";"[Hz]";"[Hz]";"[Hz]";"[Hz]";"[cm-3]"
1996-10-05T00:00:30.723;1.1240e+02;3.4863e+02;2.6803e+01;-5.4089e-01;3.0738e+00;-8.5695e+00;-7.8623e+01;-8.0316e+01;9.2435e-01;5.8650e+01;"line";1.5611e+03;0;"p";0;1.5611e+03;1.5320e+03;1.5907e+03;1.5622e+03;3.0220e-02
1996-10-05T00:01:08.057;1.1240e+02;3.4901e+02;2.6803e+01;-5.4089e-01;3.0738e+00;-8.6034e+00;-7.8622e+01;-8.0317e+01;9.2440e-01;6.0758e+01;"line";1.7936e+03;0;"p";0;1.7936e+03;1.7635e+03;1.8243e+03;1.7947e+03;3.9895e-02
1996-10-05T00:01:45.390;1.1240e+02;3.4938e+02;2.6804e+01;-5.4089e-01;3.0739e+00;-8.6359e+00;-7.8622e+01;-8.0317e+01;9.2445e-01;6.3742e+01;"line";1.6350e+03;0;"p";0;1.6350e+03;1.6035e+03;1.6672e+03;1.6363e+03;3.3151e-02
1996-10-05T00:02:22.723;1.1240e+02;3.4976e+02;2.6804e+01;-5.4089e-01;3.0739e+00;-8.6682e+00;-7.8621e+01;-8.0318e+01;9.2449e-01;6.9211e+01;"line";1.6350e+03;0;"p";0;1.6350e+03;1.6008e+03;1.6700e+03;1.6365e+03;3.3151e-02
1996-10-05T00:03:00.057;1.1240e+02;3.5014e+02;2.6804e+01;-5.4089e-01;3.0740e+00;-8.7009e+00;-7.8621e+01;-8.0319e+01;9.2454e-01;6.9843e+01;"line";1.6350e+03;0;"p";0;1.6350e+03;1.6005e+03;1.6703e+03;1.6365e+03;3.3151e-02
1996-10-05T00:03:37.390;1.1240e+02;3.5051e+02;2.6804e+01;-5.4089e-01;3.0740e+00;-8.7324e+00;-7.8621e+01;-8.0319e+01;9.2458e-01;6.9994e+01;"line";1.7125e+03;0;"p";0;1.7125e+03;1.6779e+03;1.7479e+03;1.7139e+03;3.6367e-02
1996-10-05T00:04:14.723;1.1240e+02;3.5088e+02;2.6804e+01;-5.4089e-01;3.0740e+00;-8.7636e+00;-7.8620e+01;-8.0320e+01;9.2463e-01;7.1948e+01;"line";1.7936e+03;0;"p";0;1.7936e+03;1.7580e+03;1.8300e+03;1.7951e+03;3.9895e-02
1996-10-05T00:04:52.057;1.1240e+02;3.5126e+02;2.6804e+01;-5.4089e-01;3.0740e+00;-8.7953e+00;-7.8620e+01;-8.0321e+01;9.2467e-01;6.9881e+01;"line";1.6733e+03;0;"p";0;1.6733e+03;1.6387e+03;1.7086e+03;1.6748e+03;3.4722e-02
1996-10-05T00:05:29.390;1.1240e+02;3.5164e+02;2.6804e+01;-5.4089e-01;3.0740e+00;-8.8258e+00;-7.8619e+01;-8.0321e+01;9.2472e-01;6.5655e+01;"line";1.9676e+03;0;"p";0;1.9676e+03;1.9351e+03;2.0007e+03;1.9687e+03;4.8010e-02
1996-10-05T00:06:06.723;1.1240e+02;3.5201e+02;2.6804e+01;-5.4089e-01;3.0740e+00;-8.8559e+00;-7.8619e+01;-8.0322e+01;9.2476e-01;6.4938e+01;"line";1.7526e+03;0;"p";0;1.7526e+03;1.7204e+03;1.7854e+03;1.7538e+03;3.8090e-02
1996-10-05T00:06:44.056;1.1240e+02;3.5239e+02;2.6804e+01;-5.4089e-01;3.0740e+00;-8.8865e+00;-7.8618e+01;-8.0323e+01;9.2481e-01;6.7034e+01;"line";1.7526e+03;0;"p";0;1.7526e+03;1.7194e+03;1.7864e+03;1.7539e+03;3.8090e-02
1996-10-05T00:07:21.390;1.1240e+02;3.5276e+02;2.6804e+01;-5.4089e-01;3.0740e+00;-8.9159e+00;-7.8618e+01;-8.0323e+01;9.2485e-01;6.7125e+01;"line";1.9226e+03;0;"p";0;1.9226e+03;1.8893e+03;1.9565e+03;1.9238e+03;4.5838e-02
1996-10-05T00:07:58.723;1.1240e+02;3.5314e+02;2.6804e+01;-5.4089e-01;3.0740e+00;-8.9450e+00;-7.8618e+01;-8.0324e+01;9.2490e-01;6.6885e+01;"line";1.6733e+03;0;"p";0;1.6733e+03;1.6402e+03;1.7071e+03;1.6747e+03;3.4722e-02
1996-10-05T00:08:36.056;1.1240e+02;3.5352e+02;2.6804e+01;-5.4089e-01;3.0740e+00;-8.9744e+00;-7.8617e+01;-8.0325e+01;9.2494e-01;7.0164e+01;"line";1.6733e+03;0;"p";0;1.6733e+03;1.6386e+03;1.7088e+03;1.6748e+03;3.4722e-02
1996-10-05T00:09:13.390;1.1240e+02;3.5389e+02;2.6804e+01;-5.4089e-01;3.0739e+00;-9.0028e+00;-7.8617e+01;-8.0325e+01;9.2499e-01;6.6510e+01;"line";1.9676e+03;0;"p";0;1.9676e+03;1.9346e+03;2.0012e+03;1.9687e+03;4.8010e-02
1996-10-05T00:09:50.723;1.1240e+02;3.5426e+02;2.6804e+01;-5.4089e-01;3.0739e+00;-9.0307e+00;-7.8616e+01;-8.0326e+01;9.2503e-01;6.2049e+01;"line";1.7526e+03;0;"p";0;1.7526e+03;1.7218e+03;1.7839e+03;1.7537e+03;3.8090e-02
1996-10-05T00:10:28.056;1.1240e+02;3.5465e+02;2.6804e+01;-5.4089e-01;3.0739e+00;-9.0591e+00;-7.8616e+01;-8.0327e+01;9.2508e-01;5.6909e+01;"line";1.7936e+03;0;"p";0;1.7936e+03;1.7654e+03;1.8223e+03;1.7945e+03;3.9895e-02
1996-10-05T00:11:05.390;1.1240e+02;3.5502e+02;2.6804e+01;-5.4089e-01;3.0738e+00;-9.0864e+00;-7.8615e+01;-8.0327e+01;9.2512e-01;5.9494e+01;"line";1.6733e+03;0;"p";0;1.6733e+03;1.6438e+03;1.7033e+03;1.6744e+03;3.4722e-02
1996-10-05T00:11:42.723;1.1240e+02;3.5539e+02;2.6804e+01;-5.4089e-01;3.0738e+00;-9.1132e+00;-7.8615e+01;-8.0328e+01;9.2517e-01;5.6509e+01;"line";1.6733e+03;0;"p";0;1.6733e+03;1.6453e+03;1.7018e+03;1.6743e+03;3.4722e-02
1996-10-05T00:12:20.056;1.1240e+02;3.5577e+02;2.6804e+01;-5.4089e-01;3.0737e+00;-9.1405e+00;-7.8614e+01;-8.0329e+01;9.2521e-01;5.1818e+01;"line";1.6733e+03;0;"p";0;1.6733e+03;1.6476e+03;1.6994e+03;1.6741e+03;3.4722e-02
1996-10-05T00:12:57.390;1.1240e+02;3.5615e+02;2.6804e+01;-5.4089e-01;3.0736e+00;-9.1666e+00;-7.8614e+01;-8.0330e+01;9.2526e-01;4.5429e+01;"line";1.6733e+03;0;"p";0;1.6733e+03;1.6508e+03;1.6962e+03;1.6739e+03;3.4722e-02
1996-10-05T00:13:34.723;1.1240e+02;3.5652e+02;2.6804e+01;-5.4089e-01;3.0736e+00;-9.1924e+00;-7.8614e+01;-8.0330e+01;9.2530e-01;4.5542e+01;"line";1.9226e+03;0;"p";0;1.9226e+03;1.9000e+03;1.9455e+03;1.9231e+03;4.5838e-02
1996-10-05T00:14:12.056;1.1240e+02;3.5690e+02;2.6804e+01;-5.4089e-01;3.0735e+00;-9.2185e+00;-7.8613e+01;-8.0331e+01;9.2535e-01;5.2660e+01;"line";1.6733e+03;0;"p";0;1.6733e+03;1.6472e+03;1.6999e+03;1.6741e+03;3.4722e-02
1996-10-05T00:14:49.390;1.1240e+02;3.5727e+02;2.6804e+01;-5.4089e-01;3.0734e+00;-9.2436e+00;-7.8613e+01;-8.0332e+01;9.2539e-01;6.2871e+01;"line";1.6733e+03;0;"p";0;1.6733e+03;1.6422e+03;1.7050e+03;1.6745e+03;3.4722e-02
1996-10-05T00:15:26.723;1.1240e+02;3.5765e+02;2.6804e+01;-5.4089e-01;3.0733e+00;-9.2682e+00;-7.8612e+01;-8.0332e+01;9.2544e-01;5.7572e+01;"line";1.9226e+03;0;"p";0;1.9226e+03;1.8940e+03;1.9516e+03;1.9235e+03;4.5838e-02
1996-10-05T00:16:04.056;1.1240e+02;3.5803e+02;2.6805e+01;-5.4089e-01;3.0732e+00;-9.2932e+00;-7.8612e+01;-8.0333e+01;9.2549e-01;5.5229e+01;"line";1.7526e+03;0;"p";0;1.7526e+03;1.7252e+03;1.7804e+03;1.7535e+03;3.8090e-02
1996-10-05T00:16:41.389;1.1240e+02;3.5840e+02;2.6805e+01;-5.4089e-01;3.0731e+00;-9.3171e+00;-7.8611e+01;-8.0334e+01;9.2553e-01;7.8837e+01;"line";1.2385e+03;0;"p";0;1.2385e+03;1.1997e+03;1.2786e+03;1.2410e+03;1.9022e-02
1996-10-05T00:17:18.723;1.1240e+02;3.5877e+02;2.6805e+01;-5.4089e-01;3.0730e+00;-9.3406e+00;-7.8611e+01;-8.0334e+01;9.2557e-01;8.3889e+01;"line";1.2385e+03;0;"p";0;1.2385e+03;1.1973e+03;1.2812e+03;1.2414e+03;1.9022e-02
1996-10-05T00:17:56.056;1.1240e+02;3.5915e+02;2.6805e+01;-5.4089e-01;3.0728e+00;-9.3644e+00;-7.8611e+01;-8.0335e+01;9.2562e-01;8.3300e+01;"line";1.2385e+03;0;"p";0;1.2385e+03;1.1976e+03;1.2809e+03;1.2413e+03;1.9022e-02
1996-10-05T00:18:33.389;1.1240e+02;3.5953e+02;2.6805e+01;-5.4089e-01;3.0727e+00;-9.3872e+00;-7.8610e+01;-8.0336e+01;9.2567e-01;8.0674e+01;"line";1.2385e+03;0;"p";0;1.2385e+03;1.1988e+03;1.2795e+03;1.2412e+03;1.9022e-02
1996-10-05T00:19:10.723;1.1240e+02;3.5990e+02;2.6805e+01;-5.4089e-01;3.0726e+00;-9.4096e+00;-7.8610e+01;-8.0336e+01;9.2571e-01;8.1458e+01;"line";1.2385e+03;0;"p";0;1.2385e+03;1.1985e+03;1.2799e+03;1.2412e+03;1.9022e-02
1996-10-05T00:19:48.056;1.1240e+02;2.8210e-01;2.6805e+01;-5.4089e-01;3.0724e+00;-9.4323e+00;-7.8609e+01;-8.0337e+01;9.2576e-01;7.9296e+01;"line";1.2385e+03;0;"p";0;1.2385e+03;1.1995e+03;1.2788e+03;1.2411e+03;1.9022e-02
1996-10-05T00:20:25.389;1.1240e+02;6.5446e-01;2.6805e+01;-5.4089e-01;3.0723e+00;-9.4539e+00;-7.8609e+01;-8.0338e+01;9.2580e-01;8.2357e+01;"line";1.2385e+03;0;"p";0;1.2385e+03;1.1980e+03;1.2804e+03;1.2413e+03;1.9022e-02
1996-10-05T00:21:02.723;1.1240e+02;1.0268e+00;2.6805e+01;-5.4089e-01;3.0722e+00;-9.4752e+00;-7.8608e+01;-8.0338e+01;9.2585e-01;8.3473e+01;"line";1.4564e+03;0;"p";0;1.4564e+03;1.4152e+03;1.4987e+03;1.4587e+03;2.6302e-02
1996-10-05T00:21:40.056;1.1240e+02;1.4093e+00;2.6805e+01;-5.4089e-01;3.0720e+00;-9.4966e+00;-7.8608e+01;-8.0339e+01;9.2589e-01;8.3085e+01;"line";1.4564e+03;0;"p";0;1.4564e+03;1.4154e+03;1.4985e+03;1.4587e+03;2.6302e-02
1996-10-05T00:22:17.389;1.1240e+02;1.7816e+00;2.6805e+01;-5.4089e-01;3.0718e+00;-9.5171e+00;-7.8608e+01;-8.0340e+01;9.2594e-01;9.0480e+01;"line";1.0779e+03;0;"p";0;1.0779e+03;1.0337e+03;1.1241e+03;1.0817e+03;1.4409e-02
1996-10-05T00:22:54.723;1.1240e+02;2.1540e+00;2.6805e+01;-5.4089e-01;3.0717e+00;-9.5372e+00;-7.8607e+01;-8.0340e+01;9.2598e-01;8.6483e+01;"line";1.0056e+03;0;"p";0;1.0056e+03;9.6333e+02;1.0498e+03;1.0093e+03;1.2541e-02
1996-10-05T00:23:32.055;1.1240e+02;2.5364e+00;2.6805e+01;-5.4089e-01;3.0715e+00;-9.5575e+00;-7.8607e+01;-8.0341e+01;9.2603e-01;9.2470e+01;"line";1.0056e+03;0;"p";0;1.0056e+03;9.6046e+02;1.0529e+03;1.0099e+03;1.2541e-02
1996-10-05T00:24:09.389;1.1240e+02;2.9088e+00;2.6805e+01;-5.4090e-01;3.0713e+00;-9.5768e+00;-7.8606e+01;-8.0342e+01;9.2607e-01;9.4669e+01;"line";1.0533e+03;0;"p";0;1.0533e+03;1.0070e+03;1.1017e+03;1.0575e+03;1.3757e-02
1996-10-05T00:24:46.722;1.1240e+02;3.2811e+00;2.6805e+01;-5.4090e-01;3.0711e+00;-9.5958e+00;-7.8606e+01;-8.0343e+01;9.2612e-01;8.7961e+01;"line";1.0533e+03;0;"p";0;1.0533e+03;1.0102e+03;1.0982e+03;1.0569e+03;1.3757e-02
1996-10-05T00:25:24.056;1.1240e+02;3.6636e+00;2.6805e+01;-5.4090e-01;3.0709e+00;-9.6148e+00;-7.8605e+01;-8.0343e+01;9.2616e-01;8.0016e+01;"line";1.0779e+03;0;"p";0;1.0779e+03;1.0387e+03;1.1187e+03;1.0809e+03;1.4409e-02
1996-10-05T00:26:01.389;1.1240e+02;4.0359e+00;2.6805e+01;-5.4090e-01;3.0707e+00;-9.6330e+00;-7.8605e+01;-8.0344e+01;9.2621e-01;8.6238e+01;"line";1.0056e+03;0;"p";0;1.0056e+03;9.6344e+02;1.0497e+03;1.0093e+03;1.2541e-02
1996-10-05T00:26:38.722;1.1240e+02;4.4083e+00;2.6805e+01;-5.4090e-01;3.0705e+00;-9.6508e+00;-7.8605e+01;-8.0345e+01;9.2625e-01;9.2643e+01;"line";1.0056e+03;0;"p";0;1.0056e+03;9.6038e+02;1.0530e+03;1.0099e+03;1.2541e-02
1996-10-05T00:27:16.056;1.1240e+02;4.7907e+00;2.6805e+01;-5.4090e-01;3.0703e+00;-9.6687e+00;-7.8604e+01;-8.0345e+01;9.2630e-01;9.2242e+01;"line";9.6015e+02;0;"p";0;9.6015e+02;9.1513e+02;1.0074e+03;9.6457e+02;1.1432e-02
1996-10-05T00:27:53.389;1.1240e+02;5.1631e+00;2.6805e+01;-5.4090e-01;3.0701e+00;-9.6857e+00;-7.8604e+01;-8.0346e+01;9.2634e-01;8.9845e+01;"line";9.8263e+02;0;"p";0;9.8263e+02;9.3873e+02;1.0286e+03;9.8673e+02;1.1974e-02
1996-10-05T00:28:30.722;1.1240e+02;5.5354e+00;2.6805e+01;-5.4090e-01;3.0698e+00;-9.7023e+00;-7.8603e+01;-8.0347e+01;9.2639e-01;8.7380e+01;"line";1.0056e+03;0;"p";0;1.0056e+03;9.6290e+02;1.0503e+03;1.0094e+03;1.2541e-02
1996-10-05T00:29:08.055;1.1240e+02;5.9179e+00;2.6805e+01;-5.4090e-01;3.0696e+00;-9.7189e+00;-7.8603e+01;-8.0347e+01;9.2643e-01;8.7351e+01;"line";1.0056e+03;0;"p";0;1.0056e+03;9.6291e+02;1.0503e+03;1.0094e+03;1.2541e-02
1996-10-05T00:29:45.389;1.1240e+02;6.2902e+00;2.6806e+01;-5.4090e-01;3.0694e+00;-9.7347e+00;-7.8602e+01;-8.0348e+01;9.2648e-01;8.5599e+01;"line";1.0056e+03;0;"p";0;1.0056e+03;9.6375e+02;1.0493e+03;1.0093e+03;1.2541e-02
1996-10-05T00:30:22.722;1.1240e+02;6.6626e+00;2.6806e+01;-5.4090e-01;3.0691e+00;-9.7502e+00;-7.8602e+01;-8.0349e+01;9.2652e-01;8.6647e+01;"line";9.8263e+02;0;"p";0;9.8263e+02;9.4026e+02;1.0269e+03;9.8644e+02;1.1974e-02
1996-10-05T00:31:00.056;1.1240e+02;7.0450e+00;2.6806e+01;-5.4090e-01;3.0689e+00;-9.7656e+00;-7.8601e+01;-8.0349e+01;9.2657e-01;8.8175e+01;"line";1.0533e+03;0;"p";0;1.0533e+03;1.0101e+03;1.0983e+03;1.0570e+03;1.3757e-02
1996-10-05T00:31:37.389;1.1240e+02;7.4174e+00;2.6806e+01;-5.4090e-01;3.0686e+00;-9.7802e+00;-7.8601e+01;-8.0350e+01;9.2661e-01;8.8032e+01;"line";1.0056e+03;0;"p";0;1.0056e+03;9.6258e+02;1.0506e+03;1.0095e+03;1.2541e-02
1996-10-05T00:32:14.722;1.1241e+02;7.7898e+00;2.6806e+01;-5.4090e-01;3.0683e+00;-9.7945e+00;-7.8601e+01;-8.0351e+01;9.2666e-01;8.8275e+01;"line";9.3818e+02;0;"p";0;9.3818e+02;8.9508e+02;9.8336e+02;9.4232e+02;1.0915e-02
1996-10-05T00:32:52.055;1.1241e+02;8.1722e+00;2.6806e+01;-5.4090e-01;3.0681e+00;-9.8087e+00;-7.8600e+01;-8.0351e+01;9.2671e-01;8.2689e+01;"line";1.0056e+03;0;"p";0;1.0056e+03;9.6514e+02;1.0478e+03;1.0090e+03;1.2541e-02
1996-10-05T00:33:29.389;1.1241e+02;8.5446e+00;2.6806e+01;-5.4090e-01;3.0678e+00;-9.8221e+00;-7.8600e+01;-8.0352e+01;9.2675e-01;8.8791e+01;"line";9.8263e+02;0;"p";0;9.8263e+02;9.3924e+02;1.0280e+03;9.8663e+02;1.1974e-02
1996-10-05T00:34:06.722;1.1241e+02;8.9169e+00;2.6806e+01;-5.4090e-01;3.0675e+00;-9.8352e+00;-7.8599e+01;-8.0353e+01;9.2679e-01;9.2604e+01;"line";9.8263e+02;0;"p";0;9.8263e+02;9.3742e+02;1.0300e+03;9.8698e+02;1.1974e-02
1996-10-05T00:34:44.055;1.1241e+02;9.2993e+00;2.6806e+01;-5.4090e-01;3.0672e+00;-9.8481e+00;-7.8599e+01;-8.0354e+01;9.2684e-01;9.1059e+01;"line";9.3818e+02;0;"p";0;9.3818e+02;8.9375e+02;9.8481e+02;9.4259e+02;1.0915e-02
1996-10-05T00:35:21.389;1.1241e+02;9.6717e+00;2.6806e+01;-5.4090e-01;3.0669e+00;-9.8604e+00;-7.8598e+01;-8.0354e+01;9.2689e-01;9.4043e+01;"line";9.3818e+02;0;"p";0;9.3818e+02;8.9234e+02;9.8638e+02;9.4288e+02;1.0915e-02
1996-10-05T00:35:58.722;1.1241e+02;1.0044e+01;2.6806e+01;-5.4090e-01;3.0666e+00;-9.8722e+00;-7.8598e+01;-8.0355e+01;9.2693e-01;9.3076e+01;"line";9.3818e+02;0;"p";0;9.3818e+02;8.9279e+02;9.8587e+02;9.4279e+02;1.0915e-02
1996-10-05T00:36:36.055;1.1241e+02;1.0427e+01;2.6806e+01;-5.4090e-01;3.0663e+00;-9.8840e+00;-7.8598e+01;-8.0356e+01;9.2698e-01;9.0914e+01;"line";9.3818e+02;0;"p";0;9.3818e+02;8.9382e+02;9.8474e+02;9.4258e+02;1.0915e-02
1996-10-05T00:37:13.389;1.1241e+02;1.0799e+01;2.6806e+01;-5.4090e-01;3.0660e+00;-9.8950e+00;-7.8597e+01;-8.0356e+01;9.2702e-01;8.9561e+01;"line";9.3818e+02;0;"p";0;9.3818e+02;8.9447e+02;9.8403e+02;9.4245e+02;1.0915e-02
1996-10-05T00:37:50.722;1.1241e+02;1.1171e+01;2.6806e+01;-5.4090e-01;3.0657e+00;-9.9056e+00;-7.8597e+01;-8.0357e+01;9.2707e-01;9.0643e+01;"line";9.3818e+02;0;"p";0;9.3818e+02;8.9395e+02;9.8460e+02;9.4255e+02;1.0915e-02
1996-10-05T00:38:28.055;1.1241e+02;1.1554e+01;2.6806e+01;-5.4090e-01;3.0654e+00;-9.9161e+00;-7.8596e+01;-8.0358e+01;9.2711e-01;9.0702e+01;"line";9.3818e+02;0;"p";0;9.3818e+02;8.9392e+02;9.8463e+02;9.4255e+02;1.0915e-02
1996-10-05T00:39:05.389;1.1241e+02;1.1926e+01;2.6806e+01;-5.4090e-01;3.0651e+00;-9.9260e+00;-7.8596e+01;-8.0358e+01;9.2716e-01;9.1738e+01;"line";9.3818e+02;0;"p";0;9.3818e+02;8.9343e+02;9.8517e+02;9.4265e+02;1.0915e-02
1996-10-05T00:39:42.722;1.1241e+02;1.2298e+01;2.6806e+01;-5.4090e-01;3.0647e+00;-9.9354e+00;-7.8595e+01;-8.0359e+01;9.2720e-01;9.5085e+01;"line";9.1672e+02;0;"p";0;9.1672e+02;8.7040e+02;9.6549e+02;9.2163e+02;1.0421e-02
1996-10-05T00:40:20.055;1.1241e+02;1.2681e+01;2.6806e+01;-5.4090e-01;3.0644e+00;-9.9447e+00;-7.8595e+01;-8.0360e+01;9.2725e-01;9.4903e+01;"line";9.3818e+02;0;"p";0;9.3818e+02;8.9193e+02;9.8683e+02;9.4297e+02;1.0915e-02
1996-10-05T00:40:57.389;1.1241e+02;1.3053e+01;2.6806e+01;-5.4090e-01;3.0641e+00;-9.9533e+00;-7.8595e+01;-8.0360e+01;9.2729e-01;9.3326e+01;"line";9.3818e+02;0;"p";0;9.3818e+02;8.9268e+02;9.8600e+02;9.4281e+02;1.0915e-02
1996-10-05T00:41:34.722;1.1241e+02;1.3426e+01;2.6806e+01;-5.4090e-01;3.0637e+00;-9.9615e+00;-7.8594e+01;-8.0361e+01;9.2734e-01;9.6861e+01;"line";9.3818e+02;0;"p";0;9.3818e+02;8.9100e+02;9.8786e+02;9.4317e+02;1.0915e-02
1996-10-05T00:42:12.055;1.1241e+02;1.3808e+01;2.6806e+01;-5.4090e-01;3.0634e+00;-9.9695e+00;-7.8594e+01;-8.0362e+01;9.2738e-01;9.4690e+01;"line";9.6015e+02;0;"p";0;9.6015e+02;9.1397e+02;1.0087e+03;9.6480e+02;1.1432e-02
1996-10-05T00:42:49.388;1.1241e+02;1.4180e+01;2.6806e+01;-5.4090e-01;3.0630e+00;-9.9769e+00;-7.8593e+01;-8.0362e+01;9.2743e-01;9.3154e+01;"line";9.1672e+02;0;"p";0;9.1672e+02;8.7132e+02;9.6447e+02;9.2144e+02;1.0421e-02
1996-10-05T00:43:26.722;1.1241e+02;1.4553e+01;2.6806e+01;-5.4090e-01;3.0626e+00;-9.9839e+00;-7.8593e+01;-8.0363e+01;9.2747e-01;9.1069e+01;"line";9.8263e+02;0;"p";0;9.8263e+02;9.3815e+02;1.0292e+03;9.8684e+02;1.1974e-02
1996-10-05T00:44:04.054;1.1241e+02;1.4935e+01;2.6807e+01;-5.4090e-01;3.0623e+00;-9.9906e+00;-7.8592e+01;-8.0364e+01;9.2752e-01;9.4369e+01;"line";9.1672e+02;0;"p";0;9.1672e+02;8.7074e+02;9.6511e+02;9.2156e+02;1.0421e-02
1996-10-05T00:44:41.388;1.1241e+02;1.5307e+01;2.6807e+01;-5.4090e-01;3.0619e+00;-9.9968e+00;-7.8592e+01;-8.0364e+01;9.2756e-01;9.8830e+01;"line";9.3818e+02;0;"p";0;9.3818e+02;8.9007e+02;9.8889e+02;9.4337e+02;1.0915e-02
1996-10-05T00:45:18.722;1.1241e+02;1.5680e+01;2.6807e+01;-5.4090e-01;3.0615e+00;-1.0003e+01;-7.8591e+01;-8.0365e+01;9.2761e-01;9.9195e+01;"line";9.3818e+02;0;"p";0;9.3818e+02;8.8989e+02;9.8909e+02;9.4341e+02;1.0915e-02
1996-10-05T00:45:56.055;1.1241e+02;1.6062e+01;2.6807e+01;-5.4090e-01;3.0611e+00;-1.0008e+01;-7.8591e+01;-8.0366e+01;9.2765e-01;9.8246e+01;"line";1.0056e+03;0;"p";0;1.0056e+03;9.5771e+02;1.0560e+03;1.0104e+03;1.2541e-02
1996-10-05T00:46:33.388;1.1241e+02;1.6435e+01;2.6807e+01;-5.4090e-01;3.0608e+00;-1.0013e+01;-7.8591e+01;-8.0366e+01;9.2770e-01;9.9210e+01;"line";1.0056e+03;0;"p";0;1.0056e+03;9.5725e+02;1.0565e+03;1.0105e+03;1.2541e-02
1996-10-05T00:47:10.722;1.1241e+02;1.6807e+01;2.6807e+01;-5.4090e-01;3.0604e+00;-1.0018e+01;-7.8590e+01;-8.0367e+01;9.2774e-01;9.7366e+01;"line";1.0056e+03;0;"p";0;1.0056e+03;9.5813e+02;1.0555e+03;1.0103e+03;1.2541e-02
1996-10-05T00:47:48.055;1.1241e+02;1.7189e+01;2.6807e+01;-5.4090e-01;3.0600e+00;-1.0022e+01;-7.8590e+01;-8.0368e+01;9.2779e-01;9.8345e+01;"line";1.0056e+03;0;"p";0;1.0056e+03;9.5767e+02;1.0560e+03;1.0104e+03;1.2541e-02
1996-10-05T00:48:25.388;1.1241e+02;1.7562e+01;2.6807e+01;-5.4090e-01;3.0596e+00;-1.0026e+01;-7.8589e+01;-8.0369e+01;9.2783e-01;9.8286e+01;"line";1.0292e+03;0;"p";0;1.0292e+03;9.8121e+02;1.0795e+03;1.0339e+03;1.3135e-02
1996-10-05T00:49:02.722;1.1241e+02;1.7934e+01;2.6807e+01;-5.4090e-01;3.0592e+00;-1.0029e+01;-7.8589e+01;-8.0369e+01;9.2788e-01;9.7129e+01;"line";1.0533e+03;0;"p";0;1.0533e+03;1.0058e+03;1.1030e+03;1.0578e+03;1.3757e-02
1996-10-05T00:49:40.055;1.1241e+02;1.8317e+01;2.6807e+01;-5.4090e-01;3.0587e+00;-1.0032e+01;-7.8588e+01;-8.0370e+01;9.2792e-01;9.0755e+01;"line";1.0533e+03;0;"p";0;1.0533e+03;1.0089e+03;1.0996e+03;1.0572e+03;1.3757e-02
1996-10-05T00:50:17.388;1.1241e+02;1.8689e+01;2.6807e+01;-5.4090e-01;3.0583e+00;-1.0034e+01;-7.8588e+01;-8.0371e+01;9.2797e-01;9.0720e+01;"line";1.0779e+03;0;"p";0;1.0779e+03;1.0335e+03;1.1243e+03;1.0818e+03;1.4409e-02
1996-10-05T00:50:54.721;1.1241e+02;1.9061e+01;2.6807e+01;-5.4090e-01;3.0579e+00;-1.0036e+01;-7.8588e+01;-8.0371e+01;9.2801e-01;9.6352e+01;"line";1.1555e+03;0;"p";0;1.1555e+03;1.1083e+03;1.2046e+03;1.1595e+03;1.6556e-02
1996-10-05T00:51:32.055;1.1241e+02;1.9444e+01;2.6807e+01;-5.4090e-01;3.0575e+00;-1.0038e+01;-7.8587e+01;-8.0372e+01;9.2806e-01;1.0060e+02;"line";1.0779e+03;0;"p";0;1.0779e+03;1.0288e+03;1.1294e+03;1.0826e+03;1.4409e-02
1996-10-05T00:52:09.388;1.1241e+02;1.9816e+01;2.6807e+01;-5.4090e-01;3.0571e+00;-1.0039e+01;-7.8587e+01;-8.0373e+01;9.2811e-01;9.6581e+01;"line";1.1555e+03;0;"p";0;1.1555e+03;1.1082e+03;1.2047e+03;1.1595e+03;1.6556e-02
1996-10-05T00:52:46.721;1.1241e+02;2.0188e+01;2.6807e+01;-5.4090e-01;3.0566e+00;-1.0040e+01;-7.8586e+01;-8.0373e+01;9.2815e-01;9.5890e+01;"line";1.2102e+03;0;"p";0;1.2102e+03;1.1632e+03;1.2591e+03;1.2140e+03;1.8162e-02
1996-10-05T00:53:24.055;1.1241e+02;2.0571e+01;2.6807e+01;-5.4090e-01;3.0562e+00;-1.0041e+01;-7.8586e+01;-8.0374e+01;9.2820e-01;9.6496e+01;"line";1.2385e+03;0;"p";0;1.2385e+03;1.1912e+03;1.2877e+03;1.2423e+03;1.9022e-02
1996-10-05T00:54:01.388;1.1241e+02;2.0943e+01;2.6807e+01;-5.4090e-01;3.0558e+00;-1.0041e+01;-7.8585e+01;-8.0375e+01;9.2824e-01;9.8892e+01;"line";1.2385e+03;0;"p";0;1.2385e+03;1.1901e+03;1.2890e+03;1.2425e+03;1.9022e-02
1996-10-05T00:54:38.721;1.1241e+02;2.1316e+01;2.6807e+01;-5.4090e-01;3.0553e+00;-1.0041e+01;-7.8585e+01;-8.0375e+01;9.2829e-01;1.0341e+02;"line";1.0779e+03;0;"p";0;1.0779e+03;1.0275e+03;1.1309e+03;1.0829e+03;1.4409e-02
1996-10-05T00:55:16.055;1.1241e+02;2.1698e+01;2.6807e+01;-5.4090e-01;3.0549e+00;-1.0040e+01;-7.8585e+01;-8.0376e+01;9.2833e-01;9.5069e+01;"line";1.2385e+03;0;"p";0;1.2385e+03;1.1919e+03;1.2870e+03;1.2422e+03;1.9022e-02
1996-10-05T00:55:53.388;1.1241e+02;2.2070e+01;2.6807e+01;-5.4090e-01;3.0544e+00;-1.0039e+01;-7.8584e+01;-8.0377e+01;9.2838e-01;9.1081e+01;"line";1.1555e+03;0;"p";0;1.1555e+03;1.1108e+03;1.2019e+03;1.1590e+03;1.6556e-02
1996-10-05T00:56:30.721;1.1241e+02;2.2443e+01;2.6807e+01;-5.4090e-01;3.0540e+00;-1.0037e+01;-7.8584e+01;-8.0377e+01;9.2842e-01;8.5898e+01;"line";1.4230e+03;0;"p";0;1.4230e+03;1.3807e+03;1.4666e+03;1.4256e+03;2.5112e-02
1996-10-05T00:57:08.055;1.1241e+02;2.2825e+01;2.6807e+01;-5.4090e-01;3.0535e+00;-1.0035e+01;-7.8583e+01;-8.0378e+01;9.2847e-01;9.1089e+01;"line";1.3276e+03;0;"p";0;1.3276e+03;1.2828e+03;1.3739e+03;1.3307e+03;2.1856e-02
1996-10-05T00:57:45.388;1.1241e+02;2.3198e+01;2.6808e+01;-5.4090e-01;3.0530e+00;-1.0032e+01;-7.8583e+01;-8.0379e+01;9.2851e-01;9.4434e+01;"line";1.2102e+03;0;"p";0;1.2102e+03;1.1639e+03;1.2583e+03;1.2139e+03;1.8162e-02
1996-10-05T00:58:22.721;1.1241e+02;2.3570e+01;2.6808e+01;-5.4090e-01;3.0526e+00;-1.0030e+01;-7.8582e+01;-8.0379e+01;9.2856e-01;9.6146e+01;"line";1.2102e+03;0;"p";0;1.2102e+03;1.1631e+03;1.2592e+03;1.2140e+03;1.8162e-02
1996-10-05T00:59:00.054;1.1241e+02;2.3952e+01;2.6808e+01;-5.4090e-01;3.0521e+00;-1.0026e+01;-7.8582e+01;-8.0380e+01;9.2860e-01;9.7084e+01;"line";1.2102e+03;0;"p";0;1.2102e+03;1.1626e+03;1.2597e+03;1.2141e+03;1.8162e-02
1996-10-05T00:59:37.388;1.1241e+02;2.4325e+01;2.6808e+01;-5.4090e-01;3.0516e+00;-1.0023e+01;-7.8581e+01;-8.0381e+01;9.2865e-01;8.9080e+01;"line";1.7125e+03;0;"p";0;1.7125e+03;1.6685e+03;1.7576e+03;1.7148e+03;3.6367e-02
1996-10-05T01:00:14.721;1.1241e+02;2.4697e+01;2.6808e+01;-5.4090e-01;3.0511e+00;-1.0019e+01;-7.8581e+01;-8.0382e+01;9.2869e-01;8.3027e+01;"line";2.0137e+03;0;"p";0;2.0137e+03;1.9726e+03;2.0556e+03;2.0154e+03;5.0284e-02
1996-10-05T01:00:52.054;1.1241e+02;2.5080e+01;2.6808e+01;-5.4090e-01;3.0507e+00;-1.0014e+01;-7.8581e+01;-8.0382e+01;9.2874e-01;7.5892e+01;"line";2.1585e+03;0;"p";0;2.1585e+03;2.1209e+03;2.1968e+03;2.1598e+03;5.7775e-02
1996-10-05T01:01:29.388;1.1241e+02;2.5452e+01;2.6808e+01;-5.4090e-01;3.0502e+00;-1.0009e+01;-7.8580e+01;-8.0383e+01;9.2878e-01;7.1796e+01;"line";2.1091e+03;0;"p";0;2.1091e+03;2.0735e+03;2.1453e+03;2.1103e+03;5.5162e-02
1996-10-05T01:02:06.721;1.1241e+02;2.5824e+01;2.6808e+01;-5.4090e-01;3.0497e+00;-1.0004e+01;-7.8580e+01;-8.0384e+01;9.2883e-01;6.3089e+01;"line";2.1091e+03;0;"p";0;2.1091e+03;2.0778e+03;2.1409e+03;2.1100e+03;5.5162e-02
1996-10-05T01:02:44.054;1.1241e+02;2.6207e+01;2.6808e+01;-5.4090e-01;3.0492e+00;-9.9982e+00;-7.8579e+01;-8.0384e+01;9.2887e-01;6.6966e+01;"line";2.1091e+03;0;"p";0;2.1091e+03;2.0759e+03;2.1428e+03;2.1102e+03;5.5162e-02
1996-10-05T01:03:21.388;1.1241e+02;2.6579e+01;2.6808e+01;-5.4090e-01;3.0487e+00;-9.9921e+00;-7.8579e+01;-8.0385e+01;9.2892e-01;7.1006e+01;"line";2.1091e+03;0;"p";0;2.1091e+03;2.0739e+03;2.1449e+03;2.1103e+03;5.5162e-02
1996-10-05T01:03:58.721;1.1241e+02;2.6951e+01;2.6808e+01;-5.4090e-01;3.0482e+00;-9.9856e+00;-7.8578e+01;-8.0386e+01;9.2896e-01;6.4894e+01;"line";2.1091e+03;0;"p";0;2.1091e+03;2.0769e+03;2.1418e+03;2.1101e+03;5.5162e-02
1996-10-05T01:04:36.054;1.1241e+02;2.7334e+01;2.6808e+01;-5.4090e-01;3.0477e+00;-9.9785e+00;-7.8578e+01;-8.0386e+01;9.2901e-01;6.6372e+01;"line";2.1091e+03;0;"p";0;2.1091e+03;2.0762e+03;2.1425e+03;2.1101e+03;5.5162e-02
1996-10-05T01:05:13.388;1.1241e+02;2.7706e+01;2.6808e+01;-5.4090e-01;3.0472e+00;-9.9712e+00;-7.8578e+01;-8.0387e+01;9.2905e-01;7.2003e+01;"line";2.1091e+03;0;"p";0;2.1091e+03;2.0734e+03;2.1454e+03;2.1103e+03;5.5162e-02
1996-10-05T01:05:50.721;1.1241e+02;2.8079e+01;2.6808e+01;-5.4090e-01;3.0467e+00;-9.9635e+00;-7.8577e+01;-8.0388e+01;9.2910e-01;6.8771e+01;"line";2.1091e+03;0;"p";0;2.1091e+03;2.0750e+03;2.1438e+03;2.1102e+03;5.5162e-02